This demonstration page uses our WeatherBlox Daily Observations layout. Learn more.

40.92945, -100.16068

Hourly Observations for June 24, 2019

Temp ( °F °C ) Dew Point ( °F °C ) Humidity (%) Winds ( mph kmh ) Pressure ( in mb ) Visibility ( mi km ) Precip ( " mm )
12:15 am 00:15 Partly Cloudy 53 11.9 53 11.4 97 97 WNW 6 9 29.91 1013 10 16.09344 0 0
12:35 am 00:35 Partly Cloudy 53 11.6 52 11.2 97 97 W 5 7 29.91 1013 10 16.09344 0 0
12:55 am 00:55 Partly Cloudy 54 12.2 53 11.5 96 96 W 7 11 29.85 1011 10 16.09344 0 0
1:15 am 01:15 Mostly Cloudy 55 12.5 53 11.4 93 93 W 5 7 29.85 1011 10 16.09344 0 0
1:35 am 01:35 Mostly Cloudy 54 12.3 52 11.3 94 94 W 5 7 29.85 1011 10 16.09344 0 0
1:55 am 01:55 Partly Cloudy 53 11.7 52 11 96 96 W 6 9 29.88 1012 10 16.09344 0 0
2:15 am 02:15 Partly Cloudy 52 11.3 51 10.8 97 97 WNW 7 11 29.88 1012 10 16.09344 0 0
2:35 am 02:35 Clear 52 11 51 10.3 95 95 W 7 11 29.88 1012 10 16.09344 0 0
2:55 am 02:55 Clear 51 10.5 50 10 97 97 W 6 9 29.88 1012 10 16.09344 0 0
3:15 am 03:15 Clear 50 10.2 50 9.9 98 98 WSW 3 6 29.88 1012 10 16.09344 0 0
3:35 am 03:35 Clear 49 9.2 48 9.1 99 99 WSW 6 9 29.88 1012 10 16.09344 0 0
3:55 am 03:55 Clear 49 9.3 48 9.1 99 99 W 5 7 29.88 1012 10 16.09344 0 0
4:15 am 04:15 Clear 49 9.3 48 9.1 99 99 Calm 29.88 1012 10 16.09344 0 0
4:35 am 04:35 Clear 48 9.1 48 8.9 99 99 Calm 29.88 1012 10 16.09344 0 0
4:55 am 04:55 Clear 47 8.6 47 8.5 99 99 W 5 7 29.91 1013 10 16.09344 0 0
5:15 am 05:15 Clear 46 7.5 45 7.3 99 99 Calm 29.91 1013 10 16.09344 0 0
5:35 am 05:35 Clear 46 8 46 8 100 100 Calm 29.91 1013 10 16.09344 0 0
5:55 am 05:55 Clear 46 7.7 46 7.6 99 99 Calm 29.88 1012 10 16.09344 0 0
6:15 am 06:15 Sunny 46 7.7 46 7.6 99 99 Calm 29.91 1013 10 16.09344 0 0
6:35 am 06:35 Sunny 46 7.7 45 7.4 98 98 Calm 29.91 1013 10 16.09344 0 0
6:55 am 06:55 Sunny 47 8.2 47 8.1 99 99 Calm 29.88 1012 10 16.09344 0 0
7:15 am 07:15 Sunny 49 9.6 49 9.5 99 99 Calm 29.85 1011 10 16.09344 0 0
7:35 am 07:35 Sunny 51 10.7 49 9.7 94 94 W 6 9 29.85 1011 10 16.09344 0 0
7:55 am 07:55 Sunny 53 11.7 50 10.2 91 91 W 6 9 29.83 1010 10 16.09344 0 0
8:15 am 08:15 Sunny 55 12.8 50 10.2 84 84 W 7 11 29.85 1011 10 16.09344 0 0
8:35 am 08:35 Sunny 57 14.1 51 10.6 80 80 W 7 11 29.83 1010 10 16.09344 0 0
8:55 am 08:55 Sunny 60 15.3 52 11.1 76 76 W 8 13 29.8 1009 10 16.09344 0 0
9:15 am 09:15 Sunny 62 16.4 53 11.6 73 73 W 10 17 29.8 1009 10 16.09344 0 0
9:35 am 09:35 Sunny 63 17.4 54 12 71 71 WNW 7 11 29.8 1009 10 16.09344 0 0
9:55 am 09:55 Sunny 65 18.3 55 12.6 70 70 W 5 7 29.8 1009 10 16.09344 0 0
10:15 am 10:15 Sunny 67 19.2 56 13.3 69 69 WNW 6 9 29.77 1008 10 16.09344 0 0
10:35 am 10:35 Sunny 68 20.1 56 13.4 66 66 W 8 13 29.8 1009 10 16.09344 0 0
10:55 am 10:55 Sunny 69 20.6 56 13.1 62 62 WSW 5 7 29.77 1008 10 16.09344 0 0
11:15 am 11:15 Sunny 70 21.3 55 12.9 59 59 W 7 11 29.77 1008 10 16.09344 0 0
11:35 am 11:35 Sunny 72 22 56 13.3 58 58 WNW 3 6 29.74 1007 10 16.09344 0 0
11:55 am 11:55 Sunny 72 22.3 53 11.8 52 52 WSW 5 7 29.74 1007 10 16.09344 0 0
12:15 pm 12:15 Sunny 73 23 53 11.7 49 49 Calm 29.74 1007 10 16.09344 0 0
12:35 pm 12:35 Sunny 74 23.1 53 11.9 49 49 WSW 3 6 29.74 1007 10 16.09344 0 0
12:55 pm 12:55 Sunny 75 23.8 56 13.5 53 53 SSW 9 15 29.71 1006 10 16.09344 0 0
1:15 pm 13:15 Sunny 76 24.2 56 13.5 51 51 SW 8 13 29.71 1006 10 16.09344 0 0
1:35 pm 13:35 Sunny 76 24.3 56 13.1 50 50 SW 7 11 29.71 1006 10 16.09344 0 0
1:55 pm 13:55 Sunny 76 24.5 56 13.2 49 49 SSW 8 13 29.71 1006 10 16.09344 0 0
2:15 pm 14:15 Sunny 77 25 57 14.1 51 51 SW 10 17 29.71 1006 10 16.09344 0 0
2:35 pm 14:35 Sunny 78 25.4 58 14.3 50 50 SSW 9 15 29.68 1005 10 16.09344 0 0
2:55 pm 14:55 Sunny 78 25.4 56 13.3 47 47 SW 9 15 29.68 1005 10 16.09344 0 0
3:15 pm 15:15 Sunny 78 25.7 57 13.9 48 48 SW 9 15 29.65 1004 10 16.09344 0 0
3:35 pm 15:35 Sunny 79 26.2 59 14.8 50 50 SW 9 15 29.65 1004 10 16.09344 0 0
3:55 pm 15:55 Sunny 80 26.4 56 13.1 44 44 SW 9 15 29.65 1004 10 16.09344 0 0
4:15 pm 16:15 Sunny 80 26.7 54 12.3 41 41 SSW 10 17 29.65 1004 10 16.09344 0 0
4:35 pm 16:35 Sunny 81 27.1 55 13 42 42 W 12 19 29.65 1004 10 16.09344 0 0
4:55 pm 16:55 Sunny 81 27 55 12.5 41 41 WSW 9 15 29.65 1004 10 16.09344 0 0
5:15 pm 17:15 Sunny 81 27.1 55 12.7 41 41 SW 6 9 29.65 1004 10 16.09344 0 0
5:35 pm 17:35 Sunny 81 27.3 55 12.5 40 40 Calm 29.62 1003 10 16.09344 0 0
5:55 pm 17:55 Sunny 81 27.4 57 13.7 43 43 S 5 7 29.62 1003 10 16.09344 0 0
6:15 pm 18:15 Sunny 81 27.3 57 14 44 44 SSW 6 9 29.62 1003 10 16.09344 0 0
6:35 pm 18:35 Sunny 81 27.4 58 14.3 45 45 SSW 6 9 29.62 1003 10 16.09344 0 0
6:55 pm 18:55 Sunny 81 27.1 56 13.6 43 43 SW 5 7 29.62 1003 10 16.09344 0 0
7:15 pm 19:15 Sunny 80 26.8 57 13.7 45 45 WSW 3 6 29.62 1003 10 16.09344 0 0
7:35 pm 19:35 Sunny 80 26.9 58 14.7 47 47 Calm 29.62 1003 10 16.09344 0 0
7:55 pm 19:55 Sunny 80 26.6 64 17.5 57 57 Calm 29.62 1003 10 16.09344 0 0
8:15 pm 20:15 Sunny 77 24.9 64 17.6 64 64 SSE 6 9 29.62 1003 7 11.265408 0 0
8:35 pm 20:35 Sunny 74 23.3 62 16.6 66 66 SSE 5 7 29.65 1004 7 11.265408 0 0
8:55 pm 20:55 Sunny 72 22.3 59 15 63 63 SE 5 7 29.65 1004 10 16.09344 0 0
9:15 pm 21:15 Clear 70 21.1 58 14.6 67 67 SSE 7 11 29.65 1004 10 16.09344 0 0
9:35 pm 21:35 Clear 68 20 58 14.6 71 71 SSE 7 11 29.68 1005 10 16.09344 0 0
9:55 pm 21:55 Clear 67 19.2 58 14.6 75 75 SSE 6 9 29.68 1005 10 16.09344 0 0
10:15 pm 22:15 Clear 65 18.4 58 14.7 79 79 SSE 8 13 29.68 1005 10 16.09344 0 0
10:35 pm 22:35 Clear 64 17.7 58 14.5 82 82 S 6 9 29.68 1005 10 16.09344 0 0
10:55 pm 22:55 Clear 64 17.5 58 14.5 83 83 SSE 6 9 29.68 1005 10 16.09344 0 0
11:15 pm 23:15 Clear 62 16.9 57 14.1 84 84 SSE 3 6 29.71 1006 10 16.09344 0 0
11:35 pm 23:35 Clear 61 16.3 56 13.1 81 81 SE 5 7 29.71 1006 10 16.09344 0 0
11:55 pm 23:55 Clear 60 15.3 55 12.9 86 86 SE 3 6 29.71 1006 10 16.09344 0 0

Powered by AerisWeather